GW4110 Weather Reports


time (UTC)temp
F
wind
direction
speed
knots
gust
knots
rain 1hr
in
rain 24hr
in
rain mn
in
humidity
%
barometer
mb
20260901175458 70 155 0.9 0.9 0.00 0.00 0.00 53 1017.9
20260901174953 69 269 0.0 0.0 0.00 0.00 0.00 53 1018.1
20260901174449 68 323 0.9 0.9 0.00 0.00 0.00 54 1017.8
20260901173944 68 261 0.9 1.7 0.00 0.00 0.00 54 1017.8
20260901173439 69 278 2.6 3.5 0.00 0.00 0.00 54 1017.8
20260901172936 70 196 1.7 2.6 0.00 0.00 0.00 52 1017.9
20260901172431 70 169 0.0 0.0 0.00 0.00 0.00 52 1017.6
20260901171928 70 164 0.9 2.6 0.00 0.00 0.00 52 1017.6
20260901171427 68 208 0.9 0.9 0.00 0.00 0.00 54 1017.7
20260901170926 69 185 0.9 0.9 0.00 0.00 0.00 53 1017.7
20260901170421 67 161 0.0 0.0 0.00 0.00 0.00 55 1017.5
20260901165915 67 221 1.7 1.7 0.00 0.00 0.00 55 1017.5
20260901165410 67 207 0.0 0.9 0.00 0.00 0.00 56 1017.5
20260901164906 66 236 0.9 0.9 0.00 0.00 0.00 57 1017.4
20260901164401 66 210 0.9 0.9 0.00 0.00 0.00 58 1017.6
20260901163900 66 331 1.7 2.6 0.00 0.00 0.00 57 1017.6
20260901163356 67 179 0.9 0.9 0.00 0.00 0.00 58 1017.5
20260901162850 67 210 0.0 0.9 0.00 0.00 0.00 57 1017.5
20260901162349 67 168 0.0 0.0 0.00 0.00 0.00 57 1017.6
20260901161844 66 192 1.7 1.7 0.00 0.00 0.00 57 1017.4
20260901161338 65 209 0.0 0.0 0.00 0.00 0.00 59 1017.5
20260901160833 65 176 0.0 0.0 0.00 0.00 0.00 60 1017.4
20260901160330 65 211 0.9 1.7 0.00 0.00 0.00 60 1017.4
20260901155829 65 231 0.9 0.9 0.00 0.00 0.00 60 1017.6
20260901155324 65 190 1.7 1.7 0.00 0.00 0.00 60 1017.3
20260901154820 65 157 0.9 1.7 0.00 0.00 0.00 60 1017.5
20260901154314 64 177 0.9 1.7 0.00 0.00 0.00 61 1017.3
20260901153809 64 180 0.0 0.0 0.00 0.00 0.00 61 1017.3
20260901153309 64 237 0.9 1.7 0.00 0.00 0.00 61 1017.2
20260901152808 64 216 0.9 0.9 0.00 0.00 0.00 61 1017.1
20260901152306 64 212 0.0 0.9 0.00 0.00 0.00 62 1016.9
20260901151802 64 210 0.0 0.0 0.00 0.00 0.00 63 1017.0
20260901151302 64 197 0.0 0.0 0.00 0.00 0.00 63 1017.1
20260901150755 63 189 0.0 0.0 0.00 0.00 0.00 63 1016.9
20260901150253 63 191 0.9 0.9 0.00 0.00 0.00 63 1017.0
20260901145751 63 199 0.0 0.9 0.00 0.00 0.00 64 1017.0
20260901145246 63 196 0.0 0.0 0.00 0.00 0.00 65 1016.9
20260901144742 62 198 0.9 1.7 0.00 0.00 0.00 65 1016.8
20260901144237 62 203 0.0 0.0 0.00 0.00 0.00 66 1016.8
20260901143733 62 210 0.9 1.7 0.00 0.00 0.00 66 1016.8
20260901143228 62 195 0.9 0.9 0.00 0.00 0.00 66 1016.6
20260901142725 62 189 0.9 0.9 0.00 0.00 0.00 67 1016.5
20260901142223 62 195 0.9 0.9 0.00 0.00 0.00 67 1016.7
20260901141718 62 233 1.7 2.6 0.00 0.00 0.00 67 1016.4
20260901141213 62 205 0.0 0.9 0.00 0.00 0.00 67 1016.5
20260901140712 62 211 0.9 0.9 0.00 0.00 0.00 67 1016.4
20260901140210 61 191 0.0 0.0 0.00 0.00 0.00 67 1016.2
20260901135705 61 197 0.9 0.9 0.00 0.00 0.00 67 1016.1
20260901135200 61 193 0.0 0.0 0.00 0.00 0.00 68 1016.2
20260901134656 61 185 0.0 0.9 0.00 0.00 0.00 68 1016.1
20260901134151 61 211 0.0 0.0 0.00 0.00 0.00 68 1016.1
20260901133651 61 196 0.0 0.0 0.00 0.00 0.00 68 1016.0
20260901133149 61 190 0.9 1.7 0.00 0.00 0.00 68 1016.0
20260901132644 61 210 0.9 0.9 0.00 0.00 0.00 68 1015.9
20260901132143 61 197 0.0 0.9 0.00 0.00 0.00 68 1015.9
20260901131644 61 158 0.0 0.0 0.00 0.00 0.00 68 1016.0
20260901131138 61 199 0.0 0.9 0.00 0.00 0.00 68 1015.8
20260901130633 61 179 0.0 0.0 0.00 0.00 0.00 68 1015.8
20260901130132 61 183 0.9 0.9 0.00 0.00 0.00 68 1016.0
20260901125630 61 193 0.9 0.9 0.00 0.00 0.00 69 1015.8
20260901125125 61 202 0.9 0.9 0.00 0.00 0.00 69 1015.8
20260901124620 61 201 0.0 0.0 0.00 0.00 0.00 69 1015.8
20260901124114 61 195 0.9 0.9 0.00 0.00 0.00 69 1015.7
20260901123614 61 216 0.9 0.9 0.00 0.00 0.00 70 1015.7
20260901123114 61 194 0.0 0.0 0.00 0.00 0.00 70 1015.9
20260901122612 61 201 0.9 0.9 0.00 0.00 0.00 70 1015.6
20260901122107 61 202 0.0 0.9 0.00 0.00 0.00 70 1015.8
20260901121601 61 233 0.9 1.7 0.00 0.00 0.00 70 1015.7
20260901121056 61 203 0.9 0.9 0.00 0.00 0.00 71 1015.7
20260901120551 61 203 0.0 0.0 0.00 0.00 0.00 71 1015.7
20260901120047 61 197 0.0 0.0 0.00 0.00 0.00 71 1015.7
20260901115541 61 187 0.0 0.0 0.00 0.00 0.00 70 1015.5
20260901115038 61 175 0.0 0.0 0.00 0.00 0.00 70 1015.5
20260901114534 61 163 0.0 0.9 0.00 0.00 0.00 71 1015.7
20260901114033 61 201 0.0 0.0 0.00 0.00 0.00 70 1015.8
20260901113532 61 217 0.0 0.0 0.00 0.00 0.00 69 1015.9
20260901113027 61 208 0.0 0.0 0.00 0.00 0.00 69 1015.9
20260901112521 61 208 0.0 0.0 0.00 0.00 0.00 70 1016.0
20260901112017 61 248 0.9 1.7 0.00 0.00 0.00 72 1016.0
20260901111515 61 211 0.0 0.0 0.00 0.00 0.00 72 1016.0
20260901111014 61 202 0.0 0.0 0.00 0.00 0.00 73 1016.1
20260901110510 61 209 0.0 0.0 0.00 0.00 0.00 72 1016.1
20260901110006 61 208 0.0 0.0 0.00 0.00 0.00 73 1016.2
20260901105501 61 209 0.0 0.0 0.00 0.00 0.00 72 1015.9
20260901105001 61 208 0.0 0.0 0.00 0.00 0.00 72 1015.8
20260901104457 61 195 0.0 0.0 0.00 0.00 0.00 72 1015.9
20260901103952 61 208 0.0 0.0 0.00 0.00 0.00 72 1015.8
20260901103447 61 214 0.0 0.0 0.00 0.00 0.00 72 1015.8
20260901102942 61 210 0.0 0.0 0.00 0.00 0.00 73 1015.8
20260901102437 61 206 0.0 0.0 0.00 0.00 0.00 73 1015.7
20260901101931 61 217 0.0 0.0 0.00 0.00 0.00 73 1015.8
20260901101427 61 232 0.0 0.0 0.00 0.00 0.00 74 1015.6
20260901100926 61 209 0.0 0.0 0.00 0.00 0.00 74 1015.7
20260901100421 61 227 0.0 0.0 0.00 0.00 0.00 74 1015.6
20260901095920 61 213 0.0 0.0 0.00 0.00 0.00 74 1015.3
20260901095419 61 209 0.0 0.0 0.00 0.00 0.00 74 1015.4
20260901094912 61 231 0.0 0.0 0.00 0.00 0.00 74 1015.6
20260901094407 61 205 0.0 0.0 0.00 0.00 0.00 74 1015.4
20260901093901 61 206 0.0 0.0 0.00 0.00 0.00 74 1015.6
20260901093401 60 217 0.0 0.0 0.00 0.00 0.00 74 1015.6
20260901092856 60 209 0.0 0.0 0.00 0.00 0.00 74 1015.4
20260901092351 60 199 0.0 0.0 0.00 0.00 0.00 75 1015.6
20260901091847 60 200 0.0 0.0 0.00 0.00 0.00 74 1015.6
20260901091347 60 196 0.0 0.0 0.00 0.00 0.00 75 1015.5
20260901090842 60 199 0.0 0.0 0.00 0.00 0.00 75 1015.6
20260901090342 59 207 0.0 0.0 0.00 0.00 0.00 76 1015.5
20260901085838 59 207 0.0 0.0 0.00 0.00 0.00 77 1015.6
20260901085333 59 199 0.0 0.0 0.00 0.00 0.00 77 1015.6
20260901084829 58 191 0.0 0.0 0.00 0.00 0.00 77 1015.6
20260901084325 59 194 0.0 0.0 0.00 0.00 0.00 76 1015.6
20260901083820 59 194 0.0 0.0 0.00 0.00 0.00 75 1015.4
20260901083315 59 213 0.0 0.0 0.00 0.00 0.00 75 1015.5
20260901082813 60 203 0.0 0.0 0.00 0.00 0.00 74 1015.5
20260901082309 60 206 0.0 0.0 0.00 0.00 0.00 73 1015.6
20260901081804 61 220 0.0 0.9 0.00 0.00 0.00 73 1015.8
20260901081304 61 226 0.0 0.0 0.00 0.00 0.00 73 1015.5
20260901080759 61 210 0.0 0.9 0.00 0.00 0.00 73 1015.7
20260901080258 61 200 0.0 0.0 0.00 0.00 0.00 73 1015.6
20260901075752 61 193 0.0 0.0 0.00 0.00 0.00 73 1015.6
20260901075247 61 216 0.9 0.9 0.00 0.00 0.00 72 1015.5
20260901074742 61 195 0.0 0.0 0.00 0.00 0.00 72 1015.5
20260901074237 61 281 0.0 0.9 0.00 0.00 0.00 72 1015.6
20260901073733 61 295 0.9 1.7 0.00 0.00 0.00 72 1015.6
20260901073229 61 237 0.9 0.9 0.00 0.00 0.00 72 1015.7
20260901072724 61 202 0.0 0.9 0.00 0.00 0.00 72 1015.8
20260901072218 61 202 0.0 0.0 0.00 0.00 0.00 72 1015.7
20260901071713 61 252 0.9 0.9 0.00 0.00 0.00 72 1015.6
20260901071213 61 213 0.0 0.9 0.00 0.00 0.00 72 1015.8
20260901070706 61 202 0.0 0.9 0.00 0.00 0.00 72 1015.8
20260901070202 61 221 0.0 0.0 0.00 0.00 0.00 72 1015.7
20260901065700 61 172 0.0 0.0 0.00 0.00 0.00 72 1015.8
20260901065155 61 227 0.9 0.9 0.00 0.00 0.00 72 1015.8
20260901064652 61 192 0.0 0.9 0.00 0.00 0.00 72 1015.7
20260901064149 61 203 0.0 0.0 0.00 0.00 0.00 72 1015.9
20260901063646 61 203 0.9 0.9 0.00 0.00 0.00 73 1015.7
20260901063141 61 192 0.9 0.9 0.00 0.00 0.00 73 1015.8
20260901062637 61 240 1.7 1.7 0.00 0.00 0.00 73 1016.0
20260901062132 61 199 0.0 0.0 0.00 0.00 0.00 73 1015.7
20260901061629 61 282 0.9 1.7 0.00 0.00 0.00 73 1015.8
20260901061123 61 230 0.0 0.0 0.00 0.00 0.00 73 1015.8
20260901060618 61 200 1.7 1.7 0.00 0.00 0.00 73 1015.8
20260901060113 61 252 0.0 0.0 0.00 0.00 0.00 73 1016.0
20260901055613 61 250 0.9 1.7 0.00 0.00 0.00 73 1016.1
20260901055110 61 206 0.9 0.9 0.00 0.00 0.00 73 1016.1
20260901054607 61 229 0.0 0.9 0.00 0.00 0.00 73 1016.1
20260901054102 61 252 1.7 1.7 0.00 0.00 0.00 73 1015.9
20260901053558 61 223 0.0 0.9 0.00 0.00 0.00 73 1015.8
20260901053054 61 209 0.0 0.0 0.00 0.00 0.00 74 1016.0
20260901052550 61 260 0.0 0.9 0.00 0.00 0.00 74 1015.9
20260901052049 61 267 1.7 2.6 0.00 0.00 0.00 74 1015.8
20260901051544 61 211 0.9 0.9 0.00 0.00 0.00 75 1016.1
20260901051043 61 230 0.9 0.9 0.00 0.00 0.00 75 1015.9
20260901050538 61 209 0.0 0.0 0.00 0.00 0.00 75 1015.7
20260901050033 60 278 1.7 1.7 0.00 0.00 0.00 76 1015.7
20260901045529 60 226 0.0 0.9 0.00 0.00 0.00 76 1015.8
20260901045028 60 237 0.9 0.9 0.00 0.00 0.00 77 1015.5
20260901044525 60 225 0.9 0.9 0.00 0.00 0.00 76 1015.7
20260901044020 60 255 1.7 1.7 0.00 0.00 0.00 76 1015.6
20260901043515 60 240 1.7 1.7 0.00 0.00 0.00 76 1015.5
20260901043011 60 201 1.7 1.7 0.00 0.00 0.00 76 1015.2
20260901042510 61 263 0.9 1.7 0.00 0.00 0.00 76 1015.5
20260901042006 61 207 0.0 0.9 0.00 0.00 0.00 75 1015.4
20260901041506 61 252 0.9 0.9 0.00 0.00 0.00 75 1015.3
20260901041001 61 205 0.0 0.0 0.00 0.00 0.00 74 1015.4
20260901040456 61 206 1.7 1.7 0.00 0.00 0.00 74 1015.3
20260901035955 61 232 2.6 2.6 0.00 0.00 0.00 74 1015.5
20260901035454 61 272 2.6 5.2 0.00 0.00 0.00 75 1015.3
20260901034953 61 284 3.5 5.2 0.00 0.00 0.00 75 1015.2
20260901034452 61 299 1.7 2.6 0.00 0.00 0.00 75 1015.2
20260901033947 62 287 1.7 2.6 0.00 0.00 0.00 76 1015.2
20260901033446 62 208 0.9 1.7 0.00 0.00 0.00 76 1015.0
20260901032945 62 211 0.9 0.9 0.00 0.00 0.00 76 1014.9
20260901032440 62 271 1.7 2.6 0.00 0.00 0.00 75 1014.9
20260901031935 62 227 0.9 1.7 0.00 0.00 0.00 74 1014.7
20260901031431 62 245 0.9 1.7 0.00 0.00 0.00 74 1014.7
20260901030930 62 296 1.7 2.6 0.00 0.00 0.00 74 1014.7
20260901030426 62 286 1.7 1.7 0.00 0.00 0.00 73 1014.7
20260901025925 62 221 0.9 1.7 0.00 0.00 0.00 73 1014.5
20260901025421 63 197 1.7 2.6 0.00 0.00 0.00 73 1014.4
20260901024919 63 227 2.6 3.5 0.00 0.00 0.00 73 1014.6
20260901024414 63 261 1.7 1.7 0.00 0.00 0.00 73 1014.4
20260901023913 63 298 3.5 3.5 0.00 0.00 0.00 72 1014.4
20260901023407 63 193 0.0 0.9 0.00 0.00 0.00 72 1014.3
20260901022903 64 259 2.6 2.6 0.00 0.00 0.00 72 1014.5
20260901022359 64 312 2.6 3.5 0.00 0.00 0.00 71 1014.5
20260901021853 64 293 1.7 1.7 0.00 0.00 0.00 71 1014.5
20260901021349 64 246 0.9 1.7 0.00 0.00 0.00 71 1014.5
20260901020844 64 245 1.7 2.6 0.00 0.00 0.00 71 1014.4
20260901020339 65 237 2.6 2.6 0.00 0.00 0.00 70 1014.4
20260901015833 65 271 3.5 3.5 0.00 0.00 0.00 69 1014.4
20260901015329 65 307 1.7 1.7 0.00 0.00 0.00 69 1014.3
20260901014828 66 218 0.9 1.7 0.00 0.00 0.00 69 1014.3
20260901014325 66 294 1.7 2.6 0.00 0.00 0.00 67 1014.4
20260901013820 67 285 1.7 1.7 0.00 0.00 0.00 66 1014.3
20260901013315 67 240 1.7 2.6 0.00 0.00 0.00 65 1014.3
20260901012810 68 229 2.6 3.5 0.00 0.00 0.00 64 1014.3
20260901012306 67 271 3.5 3.5 0.00 0.00 0.00 66 1014.3
20260901011801 68 17 2.6 3.5 0.00 0.00 0.00 65 1014.4
20260901011256 68 340 3.5 5.2 0.00 0.00 0.00 65 1014.5
20260901010750 68 292 4.3 7.8 0.00 0.00 0.00 64 1014.3
20260901010245 68 352 3.5 3.5 0.00 0.00 0.00 66 1014.4
20260901005743 69 310 3.5 3.5 0.00 0.00 0.00 64 1014.5
20260901005238 68 276 1.7 2.6 0.00 0.00 0.00 63 1014.3
20260901004733 68 296 3.5 6.1 0.00 0.00 0.00 65 1014.3
20260901004227 69 49 1.7 1.7 0.00 0.00 0.00 63 1014.3
20260901003722 69 299 5.2 7.0 0.00 0.00 0.00 62 1014.5
20260901003221 69 269 1.7 1.7 0.00 0.00 0.00 62 1014.4
20260901002715 70 338 5.2 7.8 0.00 0.00 0.00 61 1014.4
20260901002210 69 202 4.3 7.0 0.00 0.00 0.00 61 1014.4
20260901001706 69 258 1.7 2.6 0.00 0.00 0.00 62 1014.3
20260901001200 70 329 4.3 6.1 0.00 0.00 0.00 60 1014.1
20260901000655 70 329 3.5 5.2 0.00 0.00 0.00 60 1014.4
20260901000150 71 3 6.1 7.8 0.00 0.00 0.00 60 1014.7
20260831235644 71 297 2.6 2.6 0.00 0.00 0.00 60 1014.5
20260831235140 70 346 3.5 6.1 0.00 0.00 0.00 60 1014.5
20260831234639 71 215 1.7 2.6 0.00 0.00 0.00 60 1014.4
20260831234135 70 34 3.5 3.5 0.00 0.00 0.00 60 1014.5
20260831233630 72 237 7.8 12.2 0.00 0.00 0.00 60 1014.7
20260831233126 71 335 3.5 6.1 0.00 0.00 0.00 59 1014.4
20260831232621 72 301 6.1 7.0 0.00 0.00 0.00 59 1014.6
20260831232116 71 255 1.7 1.7 0.00 0.00 0.00 60 1014.6
20260831231612 72 339 3.5 3.5 0.00 0.00 0.00 60 1014.6
20260831231107 72 349 1.7 1.7 0.00 0.00 0.00 59 1014.6
20260831230558 72 178 2.6 3.5 0.00 0.00 0.00 59 1014.7
20260831230058 73 89 2.6 3.5 0.00 0.00 0.00 58 1014.6
20260831225553 73 59 1.7 1.7 0.00 0.00 0.00 59 1014.5
20260831225047 73 166 0.9 0.9 0.00 0.00 0.00 59 1014.7
20260831224542 74 86 3.5 5.2 0.00 0.00 0.00 57 1014.6
20260831224038 73 74 4.3 6.1 0.00 0.00 0.00 59 1014.5
20260831223533 73 357 4.3 6.1 0.00 0.00 0.00 59 1014.7
20260831223029 75 11 7.0 8.7 0.00 0.00 0.00 56 1014.5
20260831222525 75 292 2.6 2.6 0.00 0.00 0.00 54 1014.8
20260831222025 73 18 3.5 5.2 0.00 0.00 0.00 57 1014.8
20260831221521 75 299 7.8 9.6 0.00 0.00 0.00 56 1014.9
20260831221016 75 304 1.7 1.7 0.00 0.00 0.00 56 1014.8
20260831220511 75 299 3.5 3.5 0.00 0.00 0.00 54 1014.8
20260831220006 74 326 3.5 3.5 0.00 0.00 0.00 57 1014.8
20260831215502 74 100 2.6 3.5 0.00 0.00 0.00 58 1014.9
20260831214957 76 322 3.5 3.5 0.00 0.00 0.00 54 1015.1
20260831214455 76 253 1.7 1.7 0.00 0.00 0.00 53 1015.0
20260831213950 75 241 1.7 1.7 0.00 0.00 0.00 54 1015.1
20260831213447 75 310 4.3 6.1 0.00 0.00 0.00 54 1015.2
20260831212947 76 341 4.3 6.1 0.00 0.00 0.00 54 1015.4
20260831212443 75 291 0.9 1.7 0.00 0.00 0.00 55 1015.4
20260831211942 75 339 2.6 3.5 0.00 0.00 0.00 55 1015.3
20260831211438 75 321 3.5 5.2 0.00 0.00 0.00 54 1015.3
20260831210937 74 171 0.9 0.9 0.00 0.00 0.00 57 1015.3
20260831210427 74 297 1.7 2.6 0.00 0.00 0.00 57 1015.5
20260831205923 76 270 1.7 1.7 0.00 0.00 0.00 55 1015.4
20260831205418 74 313 0.0 0.0 0.00 0.00 0.00 55 1015.6
20260831204913 73 226 1.7 2.6 0.00 0.00 0.00 58 1015.6
20260831204412 72 353 0.0 0.0 0.00 0.00 0.00 60 1015.5
20260831203911 73 38 0.9 0.9 0.00 0.00 0.00 60 1015.6
20260831203406 74 176 0.9 0.9 0.00 0.00 0.00 59 1015.5
20260831202904 71 220 0.0 0.9 0.00 0.00 0.00 63 1015.8
20260831202400 73 325 1.7 1.7 0.00 0.00 0.00 59 1015.7
20260831201859 72 281 1.7 2.6 0.00 0.00 0.00 62 1015.6
20260831201358 71 355 1.7 1.7 0.00 0.00 0.00 61 1015.7
20260831200854 72 335 1.7 2.6 0.00 0.00 0.00 60 1015.6
20260831200349 75 11 3.5 5.2 0.00 0.00 0.00 56 1015.6
20260831195844 75 325 0.9 1.7 0.00 0.00 0.00 56 1015.5
20260831195340 72 199 0.9 1.7 0.00 0.00 0.00 60 1015.5
20260831194835 73 356 1.7 2.6 0.00 0.00 0.00 59 1015.8
20260831194330 72 186 0.9 1.7 0.00 0.00 0.00 59 1015.6
20260831193829 71 341 0.9 1.7 0.00 0.00 0.00 61 1016.0
20260831193324 71 229 3.5 3.5 0.00 0.00 0.00 60 1015.9
20260831192820 72 300 0.9 0.9 0.00 0.00 0.00 59 1016.0
20260831192315 71 334 3.5 3.5 0.00 0.00 0.00 61 1016.0
20260831191811 71 302 2.6 3.5 0.00 0.00 0.00 60 1016.0
20260831191307 69 211 0.9 1.7 0.00 0.00 0.00 63 1015.9
20260831190802 70 342 2.6 5.2 0.00 0.00 0.00 62 1015.8
20260831190302 69 317 1.7 2.6 0.00 0.00 0.00 62 1015.9
20260831185756 70 323 1.7 1.7 0.00 0.00 0.00 61 1015.8
20260831185252 70 193 0.9 1.7 0.00 0.00 0.00 61 1015.9
20260831184750 70 193 3.5 5.2 0.00 0.00 0.00 62 1015.9
20260831184246 69 197 5.2 6.1 0.00 0.00 0.00 62 1016.2
20260831183742 69 323 0.9 2.6 0.00 0.00 0.00 64 1016.1
20260831183236 68 273 1.7 1.7 0.00 0.00 0.00 66 1016.2
20260831182735 68 288 0.9 1.7 0.00 0.00 0.00 65 1016.2
20260831182230 67 218 1.7 2.6 0.00 0.00 0.00 65 1016.2
20260831181730 68 303 1.7 2.6 0.00 0.00 0.00 65 1016.3
20260831181226 66 200 0.9 0.9 0.00 0.00 0.00 68 1016.2
20260831180720 67 285 1.7 2.6 0.00 0.00 0.00 67 1016.1
20260831180215 67 211 0.9 1.7 0.00 0.00 0.00 66 1016.3